Weather observations for the past three days for
Salem - McNary Field
Imperial (Metric)
Date Time (pdt) Wind (mph) Vis. (mi.) Weather Sky Cond. Temperature (ºF) Relative Humidity Wind Chill (°F) Heat Index (°F) Pressure Precipitation (in)
Air Dwpt 6 hour altimeter (in) sea level (mb) 1 hr 3 hr 6 hr
Max. Min.
23 04:56 N 8 10.00 Fair CLR 55.9 46.9 63 54 72% 30.19 1022.1
23 03:56 N 5 10.00 Fair CLR 55 46 72% 30.19 1022.3
23 02:56 N 7 10.00 Fair CLR 57 46.9 69% 30.19 1022.1
23 01:56 N 7 10.00 Fair CLR 59 46 62% 30.19 1022.2
23 00:56 N 12 10.00 Fair CLR 61 46 58% 30.19 1022.1
22 23:56 N 7 10.00 Fair CLR 61 46 58% 30.19 1022.0
22 22:56 N 12 10.00 Fair CLR 63 45 81 63 52% 30.17 1021.5
22 21:56 N 14 10.00 Fair CLR 66 46.9 50% 30.16 1021.0
22 20:56 N 14 10.00 Fair CLR 69.1 48.9 49% 30.12 1019.9
22 19:56 N 12 10.00 Fair CLR 73 50 44% 30.1 1019.1
22 18:56 NW 16 10.00 Fair CLR 77 51.1 40% 78 30.09 1018.9
22 17:56 N 16 10.00 Fair CLR 79 52 39% 79 30.09 1018.8
22 16:56 Calm 10.00 Fair CLR 80.1 51.1 82 70 37% 80 30.09 1018.7
22 15:56 NE 10 G 17 10.00 Fair CLR 81 51.1 35% 80 30.09 1018.9
22 14:56 N 6 10.00 Fair CLR 78.1 51.1 39% 79 30.1 1019.1
22 13:56 N 10 10.00 Fair CLR 77 51.1 40% 78 30.1 1019.3
22 12:56 NW 10 10.00 Fair CLR 73.9 50 43% 30.12 1019.6
22 11:56 N 14 10.00 A Few Clouds FEW038 72 50 46% 30.12 1019.9
22 10:56 N 12 10.00 Fair CLR 70 48.9 71.1 57 47% 30.13 1020.0
22 09:56 N 15 G 20 10.00 Partly Cloudy SCT030 69.1 50 51% 30.13 1020.2
22 08:56 NE 9 10.00 Fair CLR 66 50 56% 30.14 1020.4
22 07:56 N 10 10.00 Fair CLR 63 51.1 65% 30.14 1020.4
22 06:56 NW 10 10.00 Mostly Cloudy BKN024 60.1 50 70% 30.13 1020.2
22 05:56 N 6 10.00 Overcast OVC026 57.9 50 75% 30.12 1019.9
22 04:56 N 5 10.00 Fair CLR 57.9 50 66 57 75% 30.11 1019.5
22 03:56 NW 7 10.00 A Few Clouds FEW024 60.1 51.1 72% 30.1 1019.2
22 02:56 NW 8 10.00 Fair CLR 59 52 78% 30.1 1019.1
22 01:56 N 8 10.00 Fair CLR 60.1 52 75% 30.1 1019.2
22 00:56 N 8 10.00 A Few Clouds FEW039 61 52 72% 30.1 1019.3
21 23:56 NW 8 10.00 Mostly Cloudy BKN040 64 54 70% 30.1 1019.1
21 22:56 NW 7 10.00 Fair CLR 66 54 82.9 66 65% 30.09 1018.9
21 21:56 NW 8 10.00 A Few Clouds FEW043 68 55 63% 30.08 1018.5
21 20:56 W 10 10.00 Partly Cloudy SCT049 70 55.9 61% 30.07 1018.0
21 19:56 N 8 10.00 Fair CLR 75 57 54% 78 30.06 1017.6
21 18:56 Vrbl 5 10.00 Partly Cloudy SCT045 80.1 57.9 47% 81 30.04 1017.2
21 17:56 Vrbl 7 10.00 A Few Clouds FEW047 81 57.9 45% 81 30.04 1017.1
21 16:56 NE 6 10.00 Partly Cloudy SCT047 82 57 82.9 69.1 43% 82 30.05 1017.4
21 15:56 NW 7 10.00 Mostly Cloudy BKN045 82 55.9 41% 82 30.06 1017.8
21 14:56 Vrbl 6 10.00 Mostly Cloudy BKN042 80.1 57 45% 80 30.07 1018.2
21 13:56 Vrbl 5 10.00 Partly Cloudy SCT030 79 57.9 49% 80 30.08 1018.3
21 12:56 Calm 10.00 Partly Cloudy SCT030 77 57.9 52% 79 30.09 1018.8
21 11:56 W 7 10.00 Mostly Cloudy BKN026 BKN031 72 57.9 61% 30.09 1018.8
21 10:56 SW 5 10.00 Overcast OVC021 69.1 57.9 69.1 63 68% 30.09 1018.9 0.03
21 09:56 Calm 10.00 Mostly Cloudy BKN015 69.1 59 70% 30.08 1018.6
21 08:56 S 3 10.00 Thunderstorm SCT038 SCT075 BKN095 64.9 59 81% 30.08 1018.4 0.02
21 07:56 SE 6 10.00 Thunderstorm FEW045 SCT060 BKN100 66 57 73% 30.08 1018.4 0.01 0.01
21 06:56 S 8 10.00 Mostly Cloudy BKN110 64.9 55.9 73% 30.06 1017.7
21 05:56 S 5 10.00 A Few Clouds FEW110 63 55 76% 30.04 1016.9
21 04:56 W 8 10.00 Partly Cloudy SCT110 64 54 73.9 64 70% 30.06 1017.7
21 03:56 Calm 10.00 Mostly Cloudy BKN100 66 57 73% 30 1015.6
21 02:56 N 8 10.00 Mostly Cloudy BKN100 66 55.9 70% 29.98 1015.0
21 01:56 SW 7 10.00 Thunderstorm in Vicinity CLR 69.1 55 61% 30.05 1017.3
21 00:56 W 6 10.00 Fair CLR 71.1 55 57% 29.98 1014.9
20 23:56 W 6 10.00 Fair CLR 72 57 59% 29.98 1014.9
20 22:56 W 7 10.00 Fair CLR 75 57 97 75 54% 78 29.96 1014.5
20 21:56 W 6 10.00 Fair CLR 77 57.9 52% 79 29.97 1014.6
20 20:56 W 8 10.00 Fair CLR 80.1 59 49% 81 29.95 1014.1
20 19:56 NW 13 10.00 Fair CLR 87.1 59 39% 86 29.94 1013.6
20 18:56 NW 12 10.00 Fair CLR 91 59 34% 90 29.94 1013.7
20 17:56 NW 10 10.00 Fair CLR 93.9 57 29% 93 29.94 1013.8
20 16:56 N 12 10.00 Fair CLR 97 48 97 80.1 19% 93 29.96 1014.2
20 15:56 N 10 10.00 Fair CLR 96.1 50 21% 93 29.98 1015.0
20 14:56 NW 10 G 18 10.00 Fair CLR 93 52 25% 90 30 1015.5
20 13:56 N 12 G 18 10.00 Fair CLR 91 55.9 31% 89 30.02 1016.2
20 12:56 N 8 10.00 Fair CLR 87.1 57.9 37% 86 30.04 1017.1
20 11:56 N 8 10.00 Fair CLR 84 57 40% 83 30.06 1017.7
20 10:56 N 12 10.00 Fair CLR 80.1 55.9 80.1 60.1 44% 80 30.08 1018.5
20 09:56 N 9 10.00 Fair CLR 75.9 55.9 50% 78 30.09 1018.9
20 08:56 N 5 10.00 Fair CLR 72 55.9 57% 30.11 1019.3
20 07:56 N 5 10.00 Fair CLR 69.1 55.9 63% 30.11 1019.5
20 06:56 Calm 10.00 Fair CLR 64 54 70% 30.11 1019.4
20 05:56 Calm 10.00 Fair CLR 61 53.1 75% 30.11 1019.3
Date Time (pdt) Wind (mph) Vis. (mi.) Weather Sky Cond. Air Dwpt Max. Min. Relative Humidity Wind Chill (°F) Heat Index (°F) altimeter (in) sea level (mb) 1 hr 3 hr 6 hr
6 hour
Temperature (ºF) Pressure Precipitation (in)